FW7227 Weather Reports


Display with metric or nautical units.
time (UTC)temp
F
wind
direction
speed
MPH
gust
MPH
rain 1hr
in
rain 24hr
in
rain mn
in
humidity
%
barometer
mb
20260831074601 67 217 4.0 14.0 0.00 0.00 0.00 76 1010.9
20260831074058 67 225 9.0 15.0 0.00 0.00 0.00 76 1010.9
20260831073557 67 360 7.0 15.0 0.00 0.00 0.00 75 1010.9
20260831073117 67 235 9.0 15.0 0.00 0.00 0.00 74 1010.9
20260831072558 67 360 9.0 15.0 0.00 0.00 0.00 74 1010.8
20260831072056 68 213 9.0 15.0 0.00 0.00 0.00 74 1010.8
20260831071616 68 215 8.0 17.0 0.00 0.00 0.00 73 1010.7
20260831071059 68 212 8.0 17.0 0.00 0.00 0.00 73 1010.8
20260831070557 68 234 7.0 14.0 0.00 0.00 0.00 74 1010.8
20260831070112 68 229 6.0 15.0 0.00 0.00 0.00 75 1010.8
20260831065558 67 237 5.0 15.0 0.00 0.00 0.00 76 1010.8
20260831065056 67 245 6.0 13.0 0.00 0.00 0.00 75 1010.9
20260831064608 66 252 6.0 13.0 0.00 0.00 0.00 76 1010.8
20260831064055 66 212 7.0 13.0 0.00 0.00 0.00 77 1010.7
20260831063559 65 240 5.0 11.0 0.00 0.00 0.00 78 1010.7
20260831063111 65 250 4.0 10.0 0.00 0.00 0.00 79 1010.6
20260831062557 64 201 3.0 10.0 0.00 0.00 0.00 80 1010.5
20260831062056 63 211 4.0 10.0 0.00 0.00 0.00 80 1010.5
20260831061608 63 196 4.0 10.0 0.00 0.00 0.00 81 1010.4
20260831061059 63 360 4.0 10.0 0.00 0.00 0.00 81 1010.5
20260831060556 62 217 4.0 10.0 0.00 0.00 0.00 82 1010.4
20260831060110 62 215 5.0 10.0 0.00 0.00 0.00 82 1010.3
20260831055556 61 360 5.0 10.0 0.00 0.00 0.00 82 1010.3
20260831055056 61 360 5.0 15.0 0.00 0.00 0.00 83 1010.2
20260831054627 60 360 5.0 15.0 0.00 0.00 0.00 83 1010.1
20260831054056 60 360 2.0 6.0 0.00 0.00 0.00 83 1010.1
20260831053556 60 360 2.0 5.0 0.00 0.00 0.00 83 1010.2
20260831053109 60 360 2.0 5.0 0.00 0.00 0.00 83 1010.2
20260831052556 60 360 2.0 5.0 0.00 0.00 0.00 83 1010.3
20260831052059 60 360 2.0 8.0 0.00 0.00 0.00 82 1010.3
20260831051608 60 360 3.0 8.0 0.00 0.00 0.00 82 1010.2
20260831051058 60 360 3.0 5.0 0.00 0.00 0.00 82 1010.3
20260831050557 60 360 2.0 5.0 0.00 0.00 0.00 82 1010.2
20260831050110 60 360 2.0 4.0 0.00 0.00 0.00 81 1010.2
20260831045559 60 360 1.0 4.0 0.00 0.03 0.00 81 1010.1
20260831045056 60 360 2.0 8.0 0.00 0.03 0.00 81 1010.0
20260831044607 60 360 2.0 8.0 0.00 0.03 0.00 81 1009.9
20260831044056 60 360 3.0 8.0 0.00 0.03 0.00 80 1009.9
20260831043558 61 360 2.0 5.0 0.00 0.03 0.00 80 1010.0
20260831043106 61 360 2.0 5.0 0.00 0.03 0.00 80 1010.0
20260831042558 61 360 1.0 5.0 0.00 0.03 0.00 79 1009.9
20260831042056 61 360 1.0 5.0 0.00 0.03 0.00 79 1009.8
20260831041611 61 360 2.0 9.0 0.00 0.03 0.00 79 1009.8
20260831041059 61 360 1.0 9.0 0.00 0.03 0.00 79 1009.9
20260831040555 61 360 3.0 9.0 0.00 0.03 0.00 79 1010.1
20260831040111 61 360 3.0 6.0 0.00 0.03 0.00 78 1010.0
20260831035559 61 360 3.0 8.0 0.00 0.03 0.00 78 1009.9
20260831035056 61 360 3.0 8.0 0.00 0.03 0.00 78 1009.9
20260831034604 61 360 3.0 8.0 0.00 0.03 0.00 78 1009.8
20260831034057 61 360 3.0 6.0 0.00 0.03 0.00 78 1010.0
20260831033559 61 360 2.0 8.0 0.00 0.03 0.00 78 1010.0
20260831033059 61 360 3.0 8.0 0.00 0.03 0.00 78 1010.2
20260831032556 61 360 2.0 6.0 0.00 0.03 0.00 78 1010.2
20260831032057 61 360 2.0 8.0 0.00 0.03 0.00 78 1010.3
20260831031607 61 360 3.0 8.0 0.00 0.03 0.00 78 1010.3
20260831031057 61 360 3.0 9.0 0.00 0.03 0.00 78 1010.2
20260831030556 61 360 3.0 9.0 0.00 0.03 0.00 78 1010.1
20260831025557 61 360 4.0 8.0 0.00 0.03 0.00 79 1010.2
20260831025057 61 360 3.0 6.0 0.00 0.03 0.00 79 1010.2
20260831024606 61 360 3.0 6.0 0.00 0.03 0.00 79 1010.6
20260831024057 61 360 2.0 8.0 0.00 0.03 0.00 79 1010.8
20260831023556 61 360 3.0 8.0 0.00 0.03 0.00 79 1011.0
20260831023103 61 360 3.0 6.0 0.00 0.03 0.00 79 1011.1
20260831022600 61 360 2.0 8.0 0.00 0.03 0.00 79 1011.1
20260831022057 61 360 3.0 8.0 0.00 0.03 0.00 78 1010.9
20260831021604 61 360 3.0 8.0 0.00 0.03 0.00 78 1011.0
20260831021101 61 360 3.0 9.0 0.00 0.03 0.00 78 1011.0
20260831020558 61 360 4.0 9.0 0.00 0.03 0.00 78 1010.9
20260831020104 61 360 3.0 8.0 0.00 0.03 0.00 78 1010.9
20260831015601 61 360 2.0 8.0 0.00 0.03 0.00 78 1010.9
20260831015057 61 360 4.0 8.0 0.00 0.03 0.00 78 1010.9
20260831014605 61 360 3.0 6.0 0.00 0.03 0.00 78 1011.0
20260831014057 61 360 2.0 6.0 0.00 0.03 0.00 78 1011.2
20260831013557 61 360 3.0 8.0 0.00 0.03 0.00 78 1011.3
20260831013114 61 360 4.0 8.0 0.00 0.03 0.00 78 1011.4
20260831012558 61 360 4.0 8.0 0.00 0.03 0.00 78 1011.5
20260831012058 61 360 4.0 8.0 0.00 0.03 0.00 78 1011.3
20260831011600 61 360 4.0 8.0 0.00 0.03 0.00 78 1011.2
20260831011057 61 360 3.0 8.0 0.00 0.03 0.00 78 1011.3
20260831010557 61 360 1.0 5.0 0.00 0.03 0.00 79 1011.3
20260831010123 61 360 2.0 6.0 0.00 0.03 0.00 79 1011.4
20260831005557 61 360 3.0 8.0 0.00 0.03 0.00 79 1011.5
20260831005058 60 360 3.0 8.0 0.00 0.03 0.00 79 1011.6
20260831004611 60 360 4.0 8.0 0.00 0.03 0.00 80 1011.5
20260831004101 60 360 3.0 6.0 0.00 0.03 0.00 80 1011.6
20260831003557 60 360 2.0 6.0 0.00 0.03 0.00 80 1011.5
20260831003108 60 360 2.0 5.0 0.00 0.03 0.00 80 1011.7
20260831002557 60 360 2.0 5.0 0.00 0.03 0.00 80 1011.7
20260831002057 60 360 2.0 6.0 0.00 0.03 0.00 80 1011.7
20260831001602 60 360 3.0 6.0 0.00 0.03 0.00 80 1011.7
20260831001057 60 360 2.0 6.0 0.00 0.03 0.00 80 1011.7
20260831000557 60 360 2.0 6.0 0.00 0.03 0.00 80 1011.8
20260831000103 60 360 2.0 5.0 0.00 0.03 0.00 80 1011.9
20260830235559 60 360 1.0 5.0 0.00 0.03 0.00 80 1011.9
20260830235058 60 360 1.0 6.0 0.00 0.03 0.00 80 1011.9
20260830234600 60 360 1.0 6.0 0.00 0.03 0.00 80 1011.9
20260830234057 60 360 1.0 6.0 0.00 0.03 0.00 80 1012.0
20260830233557 60 360 2.0 5.0 0.00 0.03 0.00 80 1012.0
20260830233104 60 360 2.0 6.0 0.00 0.03 0.00 80 1012.0
20260830232558 60 360 3.0 6.0 0.00 0.03 0.00 80 1012.1
20260830232057 61 360 2.0 6.0 0.00 0.03 0.00 81 1012.0
20260830231607 61 360 3.0 8.0 0.00 0.03 0.00 81 1012.1
20260830231058 61 360 3.0 8.0 0.00 0.03 0.00 81 1012.2
20260830230558 60 360 3.0 8.0 0.00 0.03 0.00 81 1012.3
20260830230106 60 360 3.0 6.0 0.00 0.03 0.00 81 1012.3
20260830225558 60 360 3.0 8.0 0.00 0.04 0.00 81 1012.4
20260830225059 60 360 2.0 8.0 0.00 0.04 0.00 81 1012.3
20260830224607 61 360 2.0 4.0 0.00 0.04 0.00 81 1012.3
20260830224058 61 360 0.0 3.0 0.00 0.04 0.00 80 1012.3
20260830223558 61 0 0.0 4.0 0.00 0.04 0.00 80 1012.3
20260830223105 61 360 1.0 4.0 0.00 0.04 0.00 79 1012.3
20260830222558 61 360 1.0 3.0 0.00 0.04 0.00 79 1012.3
20260830222058 62 360 0.0 2.0 0.00 0.04 0.00 78 1012.3
20260830221605 62 0 0.0 3.0 0.00 0.04 0.00 78 1012.3
20260830221058 62 360 1.0 3.0 0.00 0.04 0.00 78 1012.3
20260830220558 62 360 1.0 3.0 0.00 0.04 0.00 78 1012.3
20260830220103 63 360 1.0 3.0 0.00 0.04 0.00 77 1012.4
20260830215601 63 0 0.0 2.0 0.00 0.04 0.04 77 1012.3
20260830215057 63 360 1.0 2.0 0.00 0.04 0.04 77 1012.4
20260830214605 63 360 0.0 0.0 0.00 0.04 0.04 76 1012.4
20260830214057 64 0 0.0 0.0 0.00 0.04 0.04 76 1012.4
20260830213558 64 0 0.0 2.0 0.00 0.04 0.04 76 1012.4
20260830213101 64 0 0.0 2.0 0.00 0.04 0.04 75 1012.4
20260830212557 65 0 0.0 2.0 0.00 0.04 0.04 74 1012.4
20260830212058 65 0 0.0 3.0 0.00 0.04 0.04 73 1012.4
20260830211600 65 258 0.0 3.0 0.00 0.04 0.04 73 1012.4
20260830211058 65 0 1.0 3.0 0.00 0.04 0.04 72 1012.4
20260830210558 66 0 1.0 3.0 0.00 0.04 0.04 72 1012.4
20260830210115 66 258 0.0 3.0 0.00 0.04 0.04 71 1012.4
20260830205559 66 258 0.0 3.0 0.00 0.04 0.04 71 1012.5
20260830205057 66 360 1.0 5.0 0.00 0.04 0.04 71 1012.5
20260830204605 66 360 1.0 5.0 0.00 0.04 0.04 71 1012.5
20260830204057 66 360 1.0 4.0 0.00 0.04 0.04 71 1012.4
20260830203557 66 0 1.0 5.0 0.00 0.04 0.04 71 1012.5
20260830203103 66 360 2.0 6.0 0.00 0.04 0.04 71 1012.4
20260830202557 66 360 2.0 6.0 0.00 0.04 0.04 71 1012.5
20260830202058 66 360 2.0 4.0 0.00 0.04 0.04 71 1012.5
20260830201612 66 360 1.0 5.0 0.00 0.04 0.04 71 1012.5
20260830201101 66 360 2.0 11.0 0.00 0.04 0.04 71 1012.5
20260830200557 67 360 2.0 11.0 0.00 0.04 0.04 71 1012.5
20260830195557 67 360 3.0 6.0 0.00 0.04 0.04 71 1012.6
20260830195057 67 360 3.0 6.0 0.00 0.04 0.04 71 1012.7
20260830194613 67 360 3.0 6.0 0.00 0.04 0.04 71 1012.7
20260830194057 67 360 3.0 6.0 0.00 0.04 0.04 70 1012.7
20260830193601 67 360 3.0 8.0 0.00 0.04 0.04 70 1012.7
20260830193101 67 360 3.0 8.0 0.00 0.04 0.04 70 1012.7
20260830192559 67 360 3.0 9.0 0.00 0.04 0.04 70 1012.8
20260830192058 67 360 4.0 9.0 0.00 0.04 0.04 70 1012.7
20260830191609 67 360 4.0 9.0 0.00 0.04 0.04 70 1012.7
20260830191057 67 360 4.0 9.0 0.00 0.04 0.04 69 1012.7
20260830190558 67 360 5.0 9.0 0.00 0.04 0.04 69 1012.6
20260830190110 67 360 4.0 9.0 0.00 0.04 0.04 69 1012.7
20260830185558 67 360 4.0 8.0 0.00 0.04 0.04 69 1012.6
20260830185221 67 360 4.0 9.0 0.00 0.04 0.04 69 1012.5
20260830184606 67 360 3.0 9.0 0.00 0.04 0.04 69 1012.5
20260830184056 67 360 4.0 9.0 0.00 0.04 0.04 69 1012.5
20260830183558 67 360 4.0 9.0 0.00 0.04 0.04 68 1012.5
20260830183101 68 360 4.0 9.0 0.00 0.04 0.04 68 1012.4
20260830182558 68 360 3.0 12.0 0.00 0.04 0.04 68 1012.4
20260830182058 68 360 6.0 12.0 0.00 0.04 0.04 68 1012.4
20260830181603 68 360 6.0 12.0 0.00 0.04 0.04 67 1012.4
20260830181057 69 360 5.0 12.0 0.00 0.04 0.04 67 1012.3
20260830180558 69 360 4.0 11.0 0.00 0.04 0.04 67 1012.3
20260830180105 69 360 6.0 11.0 0.00 0.04 0.04 66 1012.3
20260830175557 69 360 7.0 14.0 0.00 0.04 0.04 66 1012.3
20260830175057 69 360 7.0 14.0 0.00 0.04 0.04 66 1012.2
20260830174637 69 360 7.0 14.0 0.00 0.04 0.04 66 1012.1
20260830174058 69 360 6.0 14.0 0.00 0.04 0.04 66 1012.1
20260830173558 69 360 5.0 11.0 0.00 0.04 0.04 67 1012.1
20260830173103 69 215 3.0 11.0 0.00 0.04 0.04 67 1012.1
20260830172557 69 360 5.0 11.0 0.00 0.04 0.04 67 1012.1
20260830172058 69 360 7.0 11.0 0.00 0.04 0.04 66 1012.1
20260830171614 69 360 4.0 11.0 0.00 0.04 0.04 66 1012.1
20260830171056 70 360 6.0 14.0 0.00 0.04 0.04 65 1012.0
20260830170557 70 360 6.0 14.0 0.00 0.04 0.04 65 1012.0
20260830165557 70 360 8.0 14.0 0.00 0.04 0.04 65 1011.9
20260830165057 70 242 8.0 14.0 0.00 0.04 0.04 65 1011.9
20260830164605 70 266 8.0 18.0 0.00 0.04 0.04 65 1011.9
20260830164057 70 266 9.0 18.0 0.00 0.04 0.04 65 1011.9
20260830163558 70 259 7.0 18.0 0.00 0.04 0.04 65 1012.0
20260830163103 70 247 9.0 18.0 0.00 0.04 0.04 64 1012.0
20260830162557 70 239 9.0 18.0 0.00 0.04 0.04 64 1012.0
20260830162058 70 239 10.0 17.0 0.00 0.04 0.04 64 1011.9
20260830161615 70 249 9.0 17.0 0.00 0.04 0.04 65 1012.0
20260830161057 70 236 7.0 14.0 0.00 0.04 0.04 65 1011.9
20260830160603 70 257 8.0 14.0 0.00 0.04 0.04 66 1012.0
20260830155558 70 232 5.0 11.0 0.00 0.04 0.04 66 1011.9
20260830155058 70 242 6.0 12.0 0.00 0.04 0.04 66 1011.9
20260830154606 70 262 7.0 12.0 0.00 0.04 0.04 66 1012.0
20260830154100 70 281 7.0 14.0 0.00 0.04 0.04 66 1012.0
20260830153558 70 244 8.0 15.0 0.00 0.04 0.04 65 1012.0
20260830153106 70 250 8.0 18.0 0.00 0.04 0.04 65 1012.0
20260830152557 70 273 8.0 18.0 0.00 0.04 0.04 65 1011.9
20260830152057 70 289 11.0 18.0 0.00 0.04 0.04 65 1012.1
20260830151601 70 239 8.0 19.0 0.00 0.04 0.04 67 1012.1
20260830151100 70 276 8.0 19.0 0.00 0.04 0.04 66 1012.0
20260830150559 70 280 6.0 15.0 0.00 0.04 0.04 67 1012.0
20260830145559 70 261 7.0 13.0 0.00 0.04 0.04 66 1011.9
20260830145058 70 265 7.0 14.0 0.00 0.04 0.04 67 1011.9
20260830144605 70 240 5.0 18.0 0.00 0.04 0.04 67 1012.0
20260830144058 70 253 8.0 18.0 0.00 0.04 0.04 67 1011.9
20260830143558 70 252 10.0 18.0 0.00 0.04 0.04 67 1011.9
20260830143103 70 270 6.0 14.0 0.00 0.04 0.04 68 1011.9
20260830142557 69 252 6.0 13.0 0.00 0.04 0.04 69 1011.9
20260830142056 69 360 8.0 13.0 0.00 0.04 0.04 69 1011.8
20260830141559 69 246 6.0 14.0 0.00 0.04 0.04 69 1011.8
20260830141056 70 232 6.0 14.0 0.00 0.04 0.04 69 1011.8
20260830140602 70 237 7.0 16.0 0.00 0.04 0.04 67 1011.8
20260830140116 70 254 8.0 16.0 0.00 0.04 0.04 68 1011.7
20260830135556 70 266 7.0 16.0 0.00 0.04 0.04 69 1011.7
20260830135057 69 360 7.0 16.0 0.00 0.04 0.04 70 1011.7
20260830134605 69 360 8.0 19.0 0.00 0.04 0.04 72 1011.7
20260830134059 68 360 6.0 19.0 0.00 0.04 0.04 73 1011.7
20260830133556 68 360 11.0 19.0 0.00 0.04 0.04 72 1011.7
20260830133101 70 254 10.0 19.0 0.00 0.04 0.04 68 1011.7
20260830132556 70 238 9.0 19.0 0.00 0.04 0.04 64 1011.6
20260830132058 71 264 9.0 21.0 0.00 0.04 0.04 65 1011.6
20260830131608 71 259 8.0 21.0 0.00 0.04 0.04 64 1011.5
20260830131057 71 236 11.0 21.0 0.00 0.04 0.04 63 1011.4
20260830130557 71 244 10.0 18.0 0.00 0.04 0.04 63 1011.4
20260830130109 71 270 8.0 22.0 0.00 0.04 0.04 63 1011.3
20260830125558 71 247 10.0 22.0 0.00 0.04 0.04 63 1011.2
20260830125057 71 246 11.0 21.0 0.00 0.04 0.04 63 1011.3
20260830124606 72 269 10.0 23.0 0.00 0.04 0.04 62 1011.2
20260830124101 72 227 8.0 23.0 0.00 0.04 0.04 61 1011.1
20260830123557 72 360 10.0 18.0 0.00 0.04 0.04 62 1011.0
20260830123102 72 231 13.0 18.0 0.00 0.04 0.04 61 1011.0
20260830122557 71 360 7.0 24.0 0.00 0.04 0.04 62 1011.0
20260830122057 71 244 12.0 24.0 0.00 0.04 0.04 62 1011.1
20260830121600 71 234 9.0 20.0 0.00 0.04 0.04 61 1010.9
20260830121059 71 205 11.0 20.0 0.00 0.04 0.04 61 1010.9
20260830120556 71 260 10.0 20.0 0.00 0.04 0.04 60 1010.8
20260830120107 71 257 7.0 14.0 0.00 0.04 0.04 62 1010.8
20260830115556 71 244 7.0 15.0 0.00 0.04 0.04 63 1010.8
20260830115057 71 215 5.0 19.0 0.00 0.04 0.04 63 1010.8
20260830114602 71 236 9.0 19.0 0.00 0.04 0.04 62 1010.7
20260830114100 71 251 11.0 19.0 0.00 0.04 0.04 62 1010.8
20260830113556 71 267 7.0 19.0 0.00 0.04 0.04 62 1010.7
20260830113103 71 244 4.0 17.0 0.00 0.04 0.04 63 1010.7
20260830112557 70 265 9.0 17.0 0.00 0.04 0.04 63 1010.7
20260830112101 71 240 8.0 17.0 0.00 0.04 0.04 62 1010.7
20260830111601 71 250 10.0 20.0 0.00 0.04 0.04 62 1010.6
20260830111100 71 360 8.0 20.0 0.00 0.04 0.04 62 1010.7
20260830110559 71 233 9.0 19.0 0.00 0.04 0.04 63 1010.6
20260830110059 72 273 9.0 20.0 0.00 0.04 0.04 61 1010.6
20260830105556 72 259 8.0 20.0 0.00 0.04 0.04 62 1010.6
20260830105056 72 278 11.0 20.0 0.00 0.04 0.04 60 1010.5
20260830104607 72 271 11.0 29.0 0.00 0.04 0.04 61 1010.5
20260830104057 72 253 11.0 29.0 0.00 0.04 0.04 60 1010.3
20260830103557 72 232 15.0 29.0 0.00 0.04 0.04 60 1010.4
20260830103059 72 257 12.0 21.0 0.00 0.04 0.04 60 1010.4
20260830102556 72 240 11.0 19.0 0.00 0.04 0.04 60 1010.3
20260830102057 73 264 8.0 18.0 0.00 0.04 0.04 60 1010.3
20260830101608 72 246 10.0 18.0 0.00 0.04 0.04 61 1010.3
20260830101057 72 234 10.0 19.0 0.00 0.04 0.04 62 1010.3
20260830100556 71 230 10.0 19.0 0.00 0.04 0.04 62 1010.2
20260830100105 71 249 9.0 17.0 0.00 0.04 0.04 61 1010.3
20260830095556 72 252 8.0 19.0 0.00 0.04 0.04 63 1010.3
20260830095057 71 276 10.0 26.0 0.00 0.04 0.04 62 1010.2
20260830094628 71 250 12.0 26.0 0.00 0.04 0.04 62 1010.2
20260830094057 71 232 12.0 24.0 0.00 0.04 0.04 62 1010.2
20260830093556 71 263 10.0 24.0 0.00 0.04 0.04 63 1010.2
20260830093106 71 292 8.0 23.0 0.00 0.04 0.04 62 1010.2
20260830092557 71 246 13.0 23.0 0.00 0.04 0.04 62 1010.2
20260830092056 72 223 9.0 23.0 0.00 0.04 0.04 63 1010.1
20260830091609 72 233 10.0 23.0 0.00 0.04 0.04 61 1010.0
20260830091059 72 267 10.0 23.0 0.00 0.04 0.04 62 1010.0
20260830090555 72 240 10.0 22.0 0.00 0.04 0.04 63 1010.0
20260830090108 72 237 9.0 14.0 0.00 0.04 0.04 63 1010.0
20260830085555 72 279 5.0 13.0 0.00 0.04 0.04 63 1009.9
20260830085101 72 236 6.0 20.0 0.00 0.04 0.04 64 1009.9
20260830084610 71 254 6.0 20.0 0.00 0.04 0.04 64 1009.8
20260830084056 71 256 9.0 19.0 0.00 0.04 0.04 64 1009.8
20260830083556 70 268 10.0 24.0 0.00 0.04 0.04 65 1009.8
20260830083125 70 176 12.0 24.0 0.00 0.04 0.04 64 1009.7
20260830082556 71 238 10.0 26.0 0.00 0.04 0.04 65 1009.7
20260830082056 71 253 12.0 26.0 0.00 0.04 0.04 63 1009.6
20260830081604 71 234 14.0 26.0 0.00 0.04 0.04 63 1009.5
20260830081056 72 227 13.0 24.0 0.00 0.04 0.04 63 1009.5
20260830080557 71 243 13.0 23.0 0.00 0.04 0.04 64 1009.4
20260830080101 71 212 11.0 23.0 0.00 0.04 0.04 64 1009.3
20260830075557 71 259 12.0 20.0 0.00 0.04 0.04 64 1009.3
20260830075057 71 249 10.0 21.0 0.00 0.04 0.04 65 1009.3